TimeMDT,TemperatureF,Dew PointF,Humidity,Sea Level PressureIn,VisibilityMPH,Wind Direction,Wind SpeedMPH,Gust SpeedMPH,PrecipitationIn,Events,Conditions,WindDirDegrees,DateUTC
12:56 AM,-2.9,-8.0,79,30.35,-9999.0,Calm,Calm,-,N/A,,Unknown,0,2013-03-26 06:56:00
1:56 AM,-4.0,-9.0,79,30.32,-9999.0,Calm,Calm,-,N/A,,Unknown,0,2013-03-26 07:56:00
2:56 AM,-0.9,-7.1,75,30.23,-9999.0,Calm,Calm,-,N/A,,Unknown,0,2013-03-26 08:56:00
3:56 AM,-2.9,-8.0,79,30.21,-9999.0,Calm,Calm,-,N/A,,Unknown,0,2013-03-26 09:56:00
4:56 AM,1.0,-4.0,79,30.17,-9999.0,Calm,Calm,-,N/A,,Unknown,0,2013-03-26 10:56:00
5:56 AM,1.0,-4.0,79,30.19,-9999.0,Calm,Calm,-,N/A,,Unknown,0,2013-03-26 11:56:00
6:56 AM,3.9,-0.9,80,30.19,-9999.0,Calm,Calm,-,N/A,,Unknown,0,2013-03-26 12:56:00
7:56 AM,6.1,1.9,83,30.23,-9999.0,Calm,Calm,-,0.01,,Unknown,0,2013-03-26 13:56:00
8:56 AM,8.1,3.0,80,30.26,-9999.0,Calm,Calm,-,0.01,,Unknown,0,2013-03-26 14:56:00
9:56 AM,12.9,6.1,74,30.24,-9999.0,Calm,Calm,-,N/A,,Unknown,0,2013-03-26 15:56:00
10:56 AM,17.1,8.1,68,30.22,-9999.0,Calm,Calm,-,N/A,,Unknown,0,2013-03-26 16:56:00
11:56 AM,18.0,10.0,71,30.23,-9999.0,Calm,Calm,-,N/A,,Unknown,0,2013-03-26 17:56:00
12:56 PM,23.0,12.9,65,30.21,-9999.0,East,4.6,-,N/A,,Unknown,100,2013-03-26 18:56:00
1:56 PM,28.9,16.0,58,30.17,-9999.0,East,6.9,-,N/A,,Unknown,90,2013-03-26 19:56:00
2:56 PM,30.9,19.0,61,30.13,-9999.0,ESE,5.8,-,N/A,,Unknown,120,2013-03-26 20:56:00
3:56 PM,33.1,19.0,56,30.13,-9999.0,Variable,3.5,-,N/A,,Unknown,0,2013-03-26 21:56:00
4:56 PM,33.1,23.0,66,30.10,-9999.0,Calm,Calm,-,N/A,,Unknown,0,2013-03-26 22:56:00
5:56 PM,33.1,24.1,70,30.11,-9999.0,Variable,3.5,-,N/A,,Unknown,0,2013-03-26 23:56:00
6:56 PM,32.0,24.1,73,30.10,-9999.0,Calm,Calm,-,N/A,,Unknown,0,2013-03-27 00:56:00
7:56 PM,27.0,21.9,81,30.12,-9999.0,Calm,Calm,-,N/A,,Unknown,0,2013-03-27 01:56:00
8:56 PM,26.1,21.0,81,30.14,-9999.0,Calm,Calm,-,N/A,,Unknown,0,2013-03-27 02:56:00
9:56 PM,21.9,18.0,85,30.14,-9999.0,Calm,Calm,-,N/A,,Unknown,0,2013-03-27 03:56:00
10:56 PM,19.0,14.0,81,30.15,-9999.0,Calm,Calm,-,N/A,,Unknown,0,2013-03-27 04:56:00
11:56 PM,14.0,10.9,88,30.19,-9999.0,Calm,Calm,-,N/A,,Unknown,0,2013-03-27 05:56:00